Time,TemperatureF,DewpointF,PressureIn,WindDirection,WindDirectionDegrees,WindSpeedMPH,WindSpeedGustMPH,Humidity,HourlyPrecipIn,Conditions,Clouds,dailyrainin,SoftwareType,DateUTC
2013-07-14 00:02:00,68.0,66.0,30.27,South,181,0.0,-999.0,93,-99.99,,,-99.99,,2013-07-14 04:02:00,
2013-07-14 00:11:00,68.0,66.0,30.26,South,181,0.0,-999.0,93,-99.99,,,-99.99,,2013-07-14 04:11:00,
2013-07-14 00:22:00,68.0,66.0,30.26,South,181,0.0,-999.0,93,-99.99,,,-99.99,,2013-07-14 04:22:00,
2013-07-14 00:32:00,68.0,66.0,30.25,South,181,0.0,-999.0,93,-99.99,,,-99.99,,2013-07-14 04:32:00,
2013-07-14 00:42:00,68.0,66.0,30.26,South,182,0.0,-999.0,94,-99.99,,,-99.99,,2013-07-14 04:42:00,
2013-07-14 00:54:00,68.0,66.0,30.26,South,182,0.0,-999.0,94,-99.99,,,-99.99,,2013-07-14 04:54:00,
2013-07-14 01:02:00,68.0,66.0,30.26,South,181,0.0,-999.0,94,-99.99,,,-99.99,,2013-07-14 05:02:00,
2013-07-14 01:11:00,67.0,65.0,30.25,South,181,0.0,-999.0,94,-99.99,,,-99.99,,2013-07-14 05:11:00,
2013-07-14 01:23:00,67.0,65.0,30.25,South,181,0.0,-999.0,94,-99.99,,,-99.99,,2013-07-14 05:23:00,
2013-07-14 01:32:00,67.0,65.0,30.25,South,181,0.0,-999.0,94,-99.99,,,-99.99,,2013-07-14 05:32:00,
2013-07-14 01:43:00,67.0,65.0,30.25,South,181,0.0,-999.0,94,-99.99,,,-99.99,,2013-07-14 05:43:00,
2013-07-14 01:53:00,67.0,65.0,30.25,South,181,0.0,-999.0,94,-99.99,,,-99.99,,2013-07-14 05:53:00,
2013-07-14 02:01:00,68.0,66.0,30.25,South,182,0.0,-999.0,94,-99.99,,,-99.99,,2013-07-14 06:01:00,
2013-07-14 02:12:00,68.0,66.0,30.25,South,181,0.0,-999.0,94,-99.99,,,-99.99,,2013-07-14 06:12:00,
2013-07-14 02:22:00,68.0,66.0,30.25,South,181,0.0,-999.0,94,-99.99,,,-99.99,,2013-07-14 06:22:00,
2013-07-14 02:32:00,68.0,66.0,30.25,South,182,0.0,-999.0,94,-99.99,,,-99.99,,2013-07-14 06:32:00,
2013-07-14 02:42:00,68.0,67.0,30.25,South,181,0.0,-999.0,95,-99.99,,,-99.99,,2013-07-14 06:42:00,
2013-07-14 02:53:00,68.0,67.0,30.25,South,181,0.0,-999.0,95,-99.99,,,-99.99,,2013-07-14 06:53:00,
2013-07-14 03:02:00,68.0,67.0,30.25,South,182,0.0,-999.0,95,-99.99,,,-99.99,,2013-07-14 07:02:00,
2013-07-14 03:12:00,68.0,67.0,30.24,South,182,0.0,-999.0,95,-99.99,,,-99.99,,2013-07-14 07:12:00,
2013-07-14 03:22:00,68.0,67.0,30.24,South,182,0.0,-999.0,95,-99.99,,,-99.99,,2013-07-14 07:22:00,
2013-07-14 03:33:00,68.0,67.0,30.25,South,181,0.0,-999.0,95,-99.99,,,-99.99,,2013-07-14 07:33:00,
2013-07-14 03:43:00,68.0,67.0,30.25,South,182,0.0,-999.0,95,-99.99,,,-99.99,,2013-07-14 07:43:00,
2013-07-14 03:53:00,68.0,67.0,30.25,South,182,0.0,-999.0,95,-99.99,,,-99.99,,2013-07-14 07:53:00,
2013-07-14 04:01:00,68.0,67.0,30.25,South,182,0.0,-999.0,95,-99.99,,,-99.99,,2013-07-14 08:01:00,
2013-07-14 04:22:00,68.0,67.0,30.25,South,181,0.0,-999.0,95,-99.99,,,-99.99,,2013-07-14 08:22:00,
2013-07-14 04:32:00,68.0,67.0,30.24,South,182,0.0,-999.0,95,-99.99,,,-99.99,,2013-07-14 08:32:00,
2013-07-14 04:42:00,68.0,67.0,30.24,South,182,0.0,-999.0,95,-99.99,,,-99.99,,2013-07-14 08:42:00,
2013-07-14 04:53:00,68.0,67.0,30.24,South,182,0.0,-999.0,95,-99.99,,,-99.99,,2013-07-14 08:53:00,
2013-07-14 05:01:00,68.0,67.0,30.24,South,181,0.0,-999.0,95,-99.99,,,-99.99,,2013-07-14 09:01:00,
2013-07-14 05:11:00,68.0,67.0,30.24,South,181,0.0,-999.0,95,-99.99,,,-99.99,,2013-07-14 09:11:00,
2013-07-14 05:22:00,68.0,67.0,30.24,South,181,0.0,-999.0,95,-99.99,,,-99.99,,2013-07-14 09:22:00,
2013-07-14 05:32:00,68.0,67.0,30.24,South,181,0.0,-999.0,95,-99.99,,,-99.99,,2013-07-14 09:32:00,
2013-07-14 05:42:00,68.0,67.0,30.24,South,182,0.0,-999.0,95,-99.99,,,-99.99,,2013-07-14 09:42:00,
2013-07-14 05:53:00,68.0,67.0,30.24,South,182,0.0,-999.0,95,-99.99,,,-99.99,,2013-07-14 09:53:00,
2013-07-14 06:01:00,68.0,67.0,30.25,South,182,0.0,-999.0,95,-99.99,,,-99.99,,2013-07-14 10:01:00,
2013-07-14 06:12:00,68.0,67.0,30.25,South,181,0.0,-999.0,95,-99.99,,,-99.99,,2013-07-14 10:12:00,
2013-07-14 06:22:00,68.0,67.0,30.25,South,181,0.0,-999.0,95,-99.99,,,-99.99,,2013-07-14 10:22:00,
2013-07-14 06:32:00,68.0,67.0,30.25,South,181,0.0,-999.0,95,-99.99,,,-99.99,,2013-07-14 10:32:00,
2013-07-14 06:42:00,68.0,67.0,30.25,South,181,0.0,-999.0,95,-99.99,,,-99.99,,2013-07-14 10:42:00,
2013-07-14 06:53:00,68.0,67.0,30.25,South,181,0.0,-999.0,95,-99.99,,,-99.99,,2013-07-14 10:53:00,
2013-07-14 07:02:00,69.0,68.0,30.25,South,181,0.0,-999.0,96,-99.99,,,-99.99,,2013-07-14 11:02:00,
2013-07-14 07:11:00,69.0,68.0,30.25,South,181,0.0,-999.0,96,-99.99,,,-99.99,,2013-07-14 11:11:00,
2013-07-14 07:22:00,69.0,68.0,30.25,South,181,0.0,-999.0,96,-99.99,,,-99.99,,2013-07-14 11:22:00,
2013-07-14 07:32:00,70.0,69.0,30.26,South,181,0.0,-999.0,96,-99.99,,,-99.99,,2013-07-14 11:32:00,
2013-07-14 07:43:00,70.0,69.0,30.26,South,181,0.0,-999.0,96,-99.99,,,-99.99,,2013-07-14 11:43:00,
2013-07-14 07:53:00,70.0,69.0,30.26,South,181,0.0,-999.0,96,-99.99,,,-99.99,,2013-07-14 11:53:00,
2013-07-14 08:02:00,71.0,70.0,30.26,South,181,0.0,-999.0,96,-99.99,,,-99.99,,2013-07-14 12:02:00,
2013-07-14 08:12:00,72.0,71.0,30.26,South,181,0.0,-999.0,96,-99.99,,,-99.99,,2013-07-14 12:12:00,
2013-07-14 08:22:00,72.0,71.0,30.26,South,181,0.0,-999.0,96,-99.99,,,-99.99,,2013-07-14 12:22:00,
2013-07-14 08:33:00,73.0,72.0,30.26,SSW,203,0.0,-999.0,96,-99.99,,,-99.99,,2013-07-14 12:33:00,
2013-07-14 08:53:00,75.0,74.0,30.25,SSW,204,0.0,-999.0,96,-99.99,,,-99.99,,2013-07-14 12:53:00,
2013-07-14 09:01:00,76.0,74.0,30.25,West,275,1.0,-999.0,93,-99.99,,,-99.99,,2013-07-14 13:01:00,
2013-07-14 09:11:00,76.0,74.0,30.25,West,275,1.0,-999.0,93,-99.99,,,-99.99,,2013-07-14 13:11:00,
2013-07-14 09:22:00,78.0,73.0,30.25,West,271,0.0,-999.0,86,-99.99,,,-99.99,,2013-07-14 13:22:00,
2013-07-14 09:32:00,80.0,73.0,30.24,WNW,290,0.0,-999.0,80,-99.99,,,-99.99,,2013-07-14 13:32:00,
2013-07-14 09:42:00,80.0,73.0,30.24,WNW,290,0.0,-999.0,80,-99.99,,,-99.99,,2013-07-14 13:42:00,
2013-07-14 09:53:00,82.0,74.0,30.24,NW,304,1.0,-999.0,76,-99.99,,,-99.99,,2013-07-14 13:53:00,
2013-07-14 10:02:00,83.0,73.0,30.24,NW,305,1.0,-999.0,72,-99.99,,,-99.99,,2013-07-14 14:02:00,
2013-07-14 10:11:00,84.0,73.0,30.23,WNW,288,0.0,-999.0,70,-99.99,,,-99.99,,2013-07-14 14:11:00,
2013-07-14 10:23:00,84.0,73.0,30.23,WNW,288,0.0,-999.0,70,-99.99,,,-99.99,,2013-07-14 14:23:00,
2013-07-14 10:33:00,85.0,73.0,30.23,West,279,2.0,-999.0,67,-99.99,,,-99.99,,2013-07-14 14:33:00,
2013-07-14 10:43:00,85.0,72.0,30.23,WSW,249,1.0,-999.0,66,-99.99,,,-99.99,,2013-07-14 14:43:00,
2013-07-14 10:53:00,85.0,72.0,30.23,WSW,249,1.0,-999.0,66,-99.99,,,-99.99,,2013-07-14 14:53:00,
2013-07-14 11:01:00,85.0,72.0,30.23,NW,322,1.0,-999.0,65,-99.99,,,-99.99,,2013-07-14 15:01:00,
2013-07-14 11:12:00,86.0,72.0,30.23,NNE,31,1.0,-999.0,64,-99.99,,,-99.99,,2013-07-14 15:12:00,
2013-07-14 11:22:00,86.0,72.0,30.23,NNE,31,1.0,-999.0,64,-99.99,,,-99.99,,2013-07-14 15:22:00,
2013-07-14 11:32:00,87.0,73.0,30.23,WNW,290,0.0,-999.0,64,-99.99,,,-99.99,,2013-07-14 15:32:00,
2013-07-14 11:42:00,87.0,72.0,30.22,West,271,1.0,-999.0,62,-99.99,,,-99.99,,2013-07-14 15:42:00,
2013-07-14 11:53:00,87.0,72.0,30.22,West,271,1.0,-999.0,62,-99.99,,,-99.99,,2013-07-14 15:53:00,
2013-07-14 12:01:00,88.0,73.0,30.22,WSW,238,1.0,-999.0,61,-99.99,,,-99.99,,2013-07-14 16:01:00,
2013-07-14 12:11:00,89.0,72.0,30.22,North,9,1.0,-999.0,58,-99.99,,,-99.99,,2013-07-14 16:11:00,
2013-07-14 12:22:00,89.0,72.0,30.22,North,9,1.0,-999.0,58,-99.99,,,-99.99,,2013-07-14 16:22:00,
2013-07-14 12:32:00,90.0,72.0,30.22,WNW,302,1.0,-999.0,56,-99.99,,,-99.99,,2013-07-14 16:32:00,
2013-07-14 12:43:00,90.0,73.0,30.21,West,277,2.0,-999.0,57,-99.99,,,-99.99,,2013-07-14 16:43:00,
2013-07-14 12:54:00,90.0,73.0,30.21,West,277,2.0,-999.0,57,-99.99,,,-99.99,,2013-07-14 16:54:00,
2013-07-14 13:02:00,90.0,71.0,30.21,West,274,2.0,-999.0,53,-99.99,,,-99.99,,2013-07-14 17:02:00,
2013-07-14 13:11:00,92.0,72.0,30.21,NE,44,1.0,-999.0,52,-99.99,,,-99.99,,2013-07-14 17:11:00,
2013-07-14 13:22:00,92.0,72.0,30.21,NE,44,1.0,-999.0,52,-99.99,,,-99.99,,2013-07-14 17:22:00,
2013-07-14 13:32:00,91.0,71.0,30.21,WNW,285,1.0,-999.0,53,-99.99,,,-99.99,,2013-07-14 17:32:00,
2013-07-14 13:43:00,91.0,71.0,30.21,WNW,285,1.0,-999.0,53,-99.99,,,-99.99,,2013-07-14 17:43:00,
2013-07-14 13:53:00,90.0,71.0,30.20,NW,316,2.0,-999.0,54,-99.99,,,-99.99,,2013-07-14 17:53:00,
2013-07-14 14:01:00,91.0,71.0,30.20,WNW,292,1.0,-999.0,52,-99.99,,,-99.99,,2013-07-14 18:01:00,
2013-07-14 14:11:00,91.0,71.0,30.19,West,269,2.0,-999.0,52,-99.99,,,-99.99,,2013-07-14 18:11:00,
2013-07-14 14:22:00,91.0,71.0,30.19,West,269,2.0,-999.0,52,-99.99,,,-99.99,,2013-07-14 18:22:00,
2013-07-14 14:32:00,90.0,71.0,30.19,NW,313,0.0,-999.0,53,-99.99,,,-99.99,,2013-07-14 18:32:00,
2013-07-14 14:42:00,91.0,73.0,30.19,WNW,296,0.0,-999.0,55,-99.99,,,-99.99,,2013-07-14 18:42:00,
2013-07-14 14:52:00,91.0,73.0,30.19,WNW,296,0.0,-999.0,55,-99.99,,,-99.99,,2013-07-14 18:52:00,
2013-07-14 15:02:00,91.0,71.0,30.19,West,265,1.0,-999.0,53,-99.99,,,-99.99,,2013-07-14 19:02:00,
2013-07-14 15:12:00,92.0,71.0,30.19,NNW,331,0.0,-999.0,51,-99.99,,,-99.99,,2013-07-14 19:12:00,
2013-07-14 15:22:00,92.0,71.0,30.19,NNW,331,0.0,-999.0,51,-99.99,,,-99.99,,2013-07-14 19:22:00,
2013-07-14 15:32:00,93.0,72.0,30.18,WNW,298,1.0,-999.0,50,-99.99,,,-99.99,,2013-07-14 19:32:00,
2013-07-14 15:43:00,93.0,72.0,30.18,NNE,29,2.0,-999.0,50,-99.99,,,-99.99,,2013-07-14 19:43:00,
2013-07-14 15:53:00,93.0,72.0,30.18,NNE,29,2.0,-999.0,50,-99.99,,,-99.99,,2013-07-14 19:53:00,
2013-07-14 16:02:00,93.0,72.0,30.17,NNW,344,1.0,-999.0,51,-99.99,,,-99.99,,2013-07-14 20:02:00,
2013-07-14 16:11:00,93.0,71.0,30.16,WNW,293,1.0,-999.0,49,-99.99,,,-99.99,,2013-07-14 20:11:00,
2013-07-14 16:22:00,93.0,71.0,30.16,WNW,293,1.0,-999.0,49,-99.99,,,-99.99,,2013-07-14 20:22:00,
2013-07-14 16:32:00,93.0,72.0,30.17,WNW,293,2.0,-999.0,50,-99.99,,,-99.99,,2013-07-14 20:32:00,
2013-07-14 16:43:00,92.0,72.0,30.16,NNE,12,0.0,-999.0,52,-99.99,,,-99.99,,2013-07-14 20:43:00,
2013-07-14 16:53:00,92.0,72.0,30.16,NNE,12,0.0,-999.0,52,-99.99,,,-99.99,,2013-07-14 20:53:00,
2013-07-14 17:02:00,90.0,72.0,30.16,North,9,0.0,-999.0,55,-99.99,,,-99.99,,2013-07-14 21:02:00,
2013-07-14 17:11:00,90.0,73.0,30.16,NNE,33,0.0,-999.0,57,-99.99,,,-99.99,,2013-07-14 21:11:00,
2013-07-14 17:22:00,90.0,73.0,30.16,NNE,33,0.0,-999.0,57,-99.99,,,-99.99,,2013-07-14 21:22:00,
2013-07-14 17:32:00,89.0,72.0,30.16,NE,38,1.0,-999.0,58,-99.99,,,-99.99,,2013-07-14 21:32:00,
2013-07-14 17:43:00,90.0,73.0,30.16,NNE,24,0.0,-999.0,57,-99.99,,,-99.99,,2013-07-14 21:43:00,
2013-07-14 17:53:00,90.0,73.0,30.16,NNE,24,0.0,-999.0,57,-99.99,,,-99.99,,2013-07-14 21:53:00,
2013-07-14 18:01:00,90.0,71.0,30.16,NE,34,1.0,-999.0,54,-99.99,,,-99.99,,2013-07-14 22:01:00,
2013-07-14 18:11:00,89.0,72.0,30.16,NNE,20,0.0,-999.0,57,-99.99,,,-99.99,,2013-07-14 22:11:00,
2013-07-14 18:22:00,89.0,72.0,30.16,NNE,20,0.0,-999.0,57,-99.99,,,-99.99,,2013-07-14 22:22:00,
2013-07-14 18:32:00,87.0,72.0,30.16,NNE,20,0.0,-999.0,61,-99.99,,,-99.99,,2013-07-14 22:32:00,
2013-07-14 18:42:00,87.0,74.0,30.16,NNE,20,0.0,-999.0,66,-99.99,,,-99.99,,2013-07-14 22:42:00,
2013-07-14 18:53:00,87.0,74.0,30.16,NNE,20,0.0,-999.0,66,-99.99,,,-99.99,,2013-07-14 22:53:00,
2013-07-14 19:01:00,88.0,76.0,30.16,NNE,20,0.0,-999.0,67,-99.99,,,-99.99,,2013-07-14 23:01:00,
2013-07-14 19:11:00,87.0,75.0,30.16,NNE,19,0.0,-999.0,67,-99.99,,,-99.99,,2013-07-14 23:11:00,
2013-07-14 19:22:00,87.0,75.0,30.16,NNE,19,0.0,-999.0,67,-99.99,,,-99.99,,2013-07-14 23:22:00,
2013-07-14 19:32:00,87.0,75.0,30.16,NNE,20,0.0,-999.0,68,-99.99,,,-99.99,,2013-07-14 23:32:00,
2013-07-14 19:42:00,86.0,75.0,30.16,NE,43,0.0,-999.0,70,-99.99,,,-99.99,,2013-07-14 23:42:00,
2013-07-14 19:53:00,86.0,75.0,30.16,NE,43,0.0,-999.0,70,-99.99,,,-99.99,,2013-07-14 23:53:00,
2013-07-14 20:02:00,85.0,75.0,30.16,NE,43,0.0,-999.0,71,-99.99,,,-99.99,,2013-07-15 00:02:00,
2013-07-14 20:11:00,84.0,74.0,30.16,NE,43,0.0,-999.0,72,-99.99,,,-99.99,,2013-07-15 00:11:00,
2013-07-14 20:22:00,84.0,74.0,30.16,NE,43,0.0,-999.0,72,-99.99,,,-99.99,,2013-07-15 00:22:00,
2013-07-14 20:32:00,83.0,73.0,30.16,NE,43,0.0,-999.0,73,-99.99,,,-99.99,,2013-07-15 00:32:00,
2013-07-14 20:43:00,83.0,73.0,30.16,NE,43,0.0,-999.0,73,-99.99,,,-99.99,,2013-07-15 00:43:00,
2013-07-14 20:53:00,82.0,73.0,30.16,NE,43,0.0,-999.0,75,-99.99,,,-99.99,,2013-07-15 00:53:00,
2013-07-14 21:01:00,81.0,73.0,30.16,NE,43,0.0,-999.0,77,-99.99,,,-99.99,,2013-07-15 01:01:00,
2013-07-14 21:11:00,80.0,73.0,30.17,NE,43,0.0,-999.0,80,-99.99,,,-99.99,,2013-07-15 01:11:00,
2013-07-14 21:22:00,80.0,73.0,30.17,NE,43,0.0,-999.0,80,-99.99,,,-99.99,,2013-07-15 01:22:00,
2013-07-14 21:32:00,78.0,72.0,30.17,NE,43,0.0,-999.0,82,-99.99,,,-99.99,,2013-07-15 01:32:00,
2013-07-14 21:43:00,78.0,73.0,30.17,NE,43,0.0,-999.0,84,-99.99,,,-99.99,,2013-07-15 01:43:00,
2013-07-14 21:53:00,78.0,73.0,30.17,NE,43,0.0,-999.0,84,-99.99,,,-99.99,,2013-07-15 01:53:00,
2013-07-14 22:02:00,77.0,72.0,30.17,NE,43,0.0,-999.0,86,-99.99,,,-99.99,,2013-07-15 02:02:00,
2013-07-14 22:11:00,77.0,72.0,30.17,NE,43,0.0,-999.0,86,-99.99,,,-99.99,,2013-07-15 02:11:00,
2013-07-14 22:22:00,76.0,72.0,30.17,NE,43,0.0,-999.0,87,-99.99,,,-99.99,,2013-07-15 02:22:00,
2013-07-14 22:32:00,75.0,71.0,30.17,NE,43,0.0,-999.0,88,-99.99,,,-99.99,,2013-07-15 02:32:00,
2013-07-14 22:42:00,75.0,71.0,30.17,NE,43,0.0,-999.0,88,-99.99,,,-99.99,,2013-07-15 02:42:00,
2013-07-14 22:53:00,75.0,72.0,30.17,NE,43,0.0,-999.0,89,-99.99,,,-99.99,,2013-07-15 02:53:00,
2013-07-14 23:02:00,74.0,71.0,30.17,NE,43,0.0,-999.0,89,-99.99,,,-99.99,,2013-07-15 03:02:00,
2013-07-14 23:11:00,74.0,71.0,30.16,NE,43,0.0,-999.0,90,-99.99,,,-99.99,,2013-07-15 03:11:00,
2013-07-14 23:22:00,74.0,71.0,30.16,NE,43,0.0,-999.0,90,-99.99,,,-99.99,,2013-07-15 03:22:00,
2013-07-14 23:32:00,73.0,70.0,30.17,NE,43,0.0,-999.0,90,-99.99,,,-99.99,,2013-07-15 03:32:00,
2013-07-14 23:43:00,73.0,70.0,30.16,NE,43,0.0,-999.0,91,-99.99,,,-99.99,,2013-07-15 03:43:00,
2013-07-14 23:53:00,73.0,70.0,30.16,NE,43,0.0,-999.0,91,-99.99,,,-99.99,,2013-07-15 03:53:00,